Change the Weather History Date:

Monday, May 6, 2013

  Actual Average (KJAN) Record (KJAN)
Temperature  
Mean Temperature 60 °F 70 °F  
Max Temperature 69 °F 81 °F 96 °F (1952)
Min Temperature 51 °F 59 °F 43 °F (1957)
Degree Days  
Heating Degree Days 6 1  
Month to date heating degree days 6  
Since 1 July heating degree days 2385  
Cooling Degree Days 0 5  
Month to date cooling degree days 29  
Year to date cooling degree days 147  
Growing Degree Days 10 (Base 50)    
Moisture  
Dew Point 51 °F    
Average Humidity 71    
Maximum Humidity 87    
Minimum Humidity 56    
Precipitation  
Precipitation 0.01 in 0.15 in 2.44 in (1935)
Month to date precipitation 0.85  
Year to date precipitation 20.58  
Sea Level Pressure  
Sea Level Pressure 29.96 in    
Wind  
Wind Speed 7 mph (West)    
Max Wind Speed 18 mph    
Max Gust Speed 23 mph    
Visibility 10 miles    
Events Rain    
T = Trace of Precipitation, MM = Missing Value Source: NWS Daily Summary

Daily Weather History Graph

Daily Weather History Graph

Search for Another Location

Airport or City:

Trip Planner

Search our weather history database for the weather conditions in past years. The results will help you decide how hot, cold, wet, or windy it might be!

Date:

Astronomy

May. 06, 2013 Rise Set
Actual Time 6:09 AM CDT 7:45 PM CDT
Civil Twilight 5:43 AM CDT 8:12 PM CDT
Nautical Twilight 5:11 AM CDT 8:44 PM CDT
Astronomical Twilight 4:38 AM CDT 9:17 PM CDT
Moon 4:00 AM CDT 4:54 PM CDT
Length of Visible Light 14h 29m
Length of Day
13h 36m
Waning Crescent, 11% of the Moon is Illuminated
May 6
Waning Crescent
May 9
New
May 17
First Quarter
May 24
Full
May 31
Last Quarter

Hourly Weather History & Observations

Time (CDT) Temp. Dew Point Humidity Pressure Visibility Wind Dir Wind Speed Gust Speed Precip Events Conditions
12:53 AM 53.1 °F 44.1 °F 71% 29.97 in 10.0 mi WSW 5.8 mph - N/A   Overcast
1:53 AM 53.1 °F 45.0 °F 74% 29.95 in 10.0 mi West 4.6 mph - N/A   Overcast
2:53 AM 51.1 °F 44.1 °F 77% 29.94 in 10.0 mi WSW 3.5 mph - N/A   Mostly Cloudy
3:53 AM 53.1 °F 44.1 °F 71% 29.95 in 10.0 mi West 3.5 mph - N/A   Overcast
4:53 AM 52.0 °F 45.0 °F 77% 29.94 in 10.0 mi West 6.9 mph - N/A   Overcast
5:53 AM 52.0 °F 45.0 °F 77% 29.94 in 10.0 mi WSW 4.6 mph - N/A   Overcast
6:53 AM 53.1 °F 46.0 °F 77% 29.96 in 10.0 mi WSW 6.9 mph - N/A   Overcast
7:53 AM 54.0 °F 46.9 °F 77% 29.97 in 10.0 mi West 6.9 mph - N/A   Overcast
8:53 AM 55.9 °F 48.0 °F 75% 29.98 in 10.0 mi West 9.2 mph - N/A   Overcast
9:53 AM 60.1 °F 48.9 °F 67% 29.98 in 10.0 mi West 11.5 mph - N/A   Overcast
10:53 AM 62.1 °F 51.1 °F 67% 29.98 in 10.0 mi West 8.1 mph - N/A   Overcast
11:27 AM 64.4 °F 51.8 °F 64% 29.99 in 10.0 mi WSW 12.7 mph 17.3 mph N/A   Overcast
11:37 AM 64.4 °F 51.8 °F 64% 29.99 in 10.0 mi West 12.7 mph - N/A   Overcast
11:53 AM 64.0 °F 52.0 °F 65% 29.97 in 10.0 mi West 9.2 mph - N/A   Overcast
12:53 PM 66.0 °F 52.0 °F 60% 29.96 in 10.0 mi West 12.7 mph - N/A   Overcast
1:25 PM 66.2 °F 51.8 °F 60% 29.97 in 10.0 mi West 18.4 mph 23.0 mph N/A   Overcast
1:44 PM 66.2 °F 51.8 °F 60% 29.97 in 10.0 mi West 16.1 mph - N/A   Overcast
1:53 PM 68.0 °F 52.0 °F 56% 29.95 in 10.0 mi West 16.1 mph 20.7 mph N/A   Overcast
2:53 PM 66.0 °F 52.0 °F 60% 29.95 in 10.0 mi WNW 12.7 mph 21.9 mph N/A   Overcast
3:53 PM 62.1 °F 55.0 °F 78% 29.94 in 7.0 mi NW 6.9 mph - 0.01 in Rain Light Rain
4:53 PM 66.0 °F 55.0 °F 68% 29.94 in 10.0 mi WNW 9.2 mph - 0.00 in   Overcast
5:53 PM 66.9 °F 54.0 °F 63% 29.94 in 10.0 mi NW 8.1 mph - N/A   Mostly Cloudy
6:53 PM 66.0 °F 55.0 °F 68% 29.94 in 10.0 mi WNW 6.9 mph - N/A   Partly Cloudy
7:53 PM 64.0 °F 55.0 °F 73% 29.95 in 10.0 mi Calm Calm - N/A   Overcast
8:53 PM 61.0 °F 55.0 °F 81% 29.97 in 10.0 mi Calm Calm - N/A   Partly Cloudy
9:53 PM 59.0 °F 55.0 °F 87% 29.98 in 10.0 mi Calm Calm - N/A   Clear
10:53 PM 57.9 °F 54.0 °F 87% 29.98 in 10.0 mi NW 3.5 mph - N/A   Clear
11:53 PM 57.9 °F 53.1 °F 84% 29.98 in 10.0 mi NW 3.5 mph - N/A   Clear